Regional Weather Roundup
Issued by NWS

Home | Current Version | Previous Version | Graphics & Text | Print | Product List | Glossary On
Versions: 1 2 3 4 5 6 7 8 9 10 11 12 13 14 15 16 17 18 19 20 21 22 23 24 25 26 27 28 29 30 31 32 33 34 35 36 37 38 39 40 41 42 43 44 45 46 47 48 49 50
000
ASUS43 KBIS 292102
RWRND

NORTH DAKOTA REGIONAL WEATHER ROUNDUP
NATIONAL WEATHER SERVICE BISMARCK ND
400 PM CDT SUN MAY 29 2016

NOTE: "FAIR" INDICATES FEW OR NO CLOUDS BELOW 12,000 FEET WITH NO
SIGNIFICANT WEATHER AND/OR OBSTRUCTIONS TO VISIBILITY.


NDZ001>003-009>011-017-292200-
NORTHWEST NORTH DAKOTA

CITY           SKY/WX    TMP DP  RH WIND       PRES   REMARKS
WILLISTON      SUNNY     77  35  21 W13       29.96S
MINOT          MOSUNNY   77  38  24 W16       29.95F
MINOT AFB      SUNNY     73  38  28 W14G21    29.94S
$$

NDZ018>021-031>035-040>046-292200-
SOUTHWEST NORTH DAKOTA

CITY           SKY/WX    TMP DP  RH WIND       PRES   REMARKS
BISMARCK       MOSUNNY   79  45  29 MISG      29.98F
DICKINSON      MOSUNNY   72  34  24 W12       29.96F
GARRISON         N/A     75  42  30 W15G25    29.97F
HETTINGER ARPT CLOUDY    73  46  38 VRB3      30.01S
$$

NDZ004>008-012>016-024-026-027-054-292200-
NORTHEAST NORTH DAKOTA

CITY           SKY/WX    TMP DP  RH WIND       PRES   REMARKS
GRAND FORKS    MOSUNNY   75  48  38 W17       29.91F
GRND FRKS AFB  MOSUNNY   76  46  34 NW16G23   29.92F
DEVILS LAKE    PTSUNNY   74  41  30 W14G23    29.95S
$$

NDZ022-023-025-028>030-036>039-047>053-292200-
SOUTHEAST NORTH DAKOTA

CITY           SKY/WX    TMP DP  RH WIND       PRES   REMARKS
FARGO          MOSUNNY   78  48  34 NW14G22   29.94S
JAMESTOWN      MOSUNNY   75  45  34 W17G24    29.96F
$$





USA.gov is the U.S. government's official web portal to all federal, state and local government web resources and services.